Find Starlink 11440

NORAD ID: 62513 Int'l Des: 2025-004 Owner: SPXS Country: US Constellation: starlink operational
LEOCIRCULAR

Live-Position

3D-Globus wird geladen...

Über Starlink 11440

Beschreibung wird geladen...

Nächste Überflüge

Passes for default location (London). Set your location on the main map for personalized predictions.

Höhenverlauf

Loading altitude history...

Zweizeiliger Elementsatz

1 62513U 25004C 26125.26165880 .00298641 00000-0 22405-2 0 9995
2 62513 42.9994 89.9290 0001405 282.2295 77.8415 15.70922591 76100
Epoch: 5. Mai 2026 • Age: 18 hours

Aktueller Status

Höhe 356.7 km
Geschwindigkeit 7.70 km/s
Subsatellitenpunkt -10.25°S, 54.44°E
Startdatum 8. Jan. 2025
Alter 1.3 years
Typ internet

Technische Details

Klassifizierung Payload
Masse 960.00 kg
Trockenmasse 910.00 kg
Gesamtmasse 960.00 kg
Länge 0.30 m
Durchmesser 4.10 m
Spannweite 29.00 m
Form Box + pan
Hersteller SPXS
Bus-Typ Starlink V2MD
Phasenstatus In Orbit
Besitzer/Staat SPXS/US

Most Searched